Terminal Aerodrome Forecast
Issued by NWS Upton, NY

Home | Current Version | Previous Version | Text Only | Print | Product List | Glossary On
Versions: 1 2 3 4 5 6 7 8 9 10 11 12 13 14 15 16 17 18 19 20 21 22 23 24 25 26 27 28 29 30 31 32 33 34 35 36 37
000
FTUS41 KOKX 251400 AAA
TAFLGA
TAF AMD
KLGA 251433Z 2515/2612 29011KT P6SM FEW050
     FM251800 25012G21KT P6SM SCT050
     FM252300 26014KT P6SM BKN050
     FM260900 29014G22KT P6SM SCT050=

USA.gov is the U.S. government's official web portal to all federal, state and local government web resources and services.